• MPC Preparation (Info)

  • MPEC 2010-V20 : 2010 VJ

    The following Minor Planet Electronic Circular may be linked-to from your own Web pages, but must not otherwise be redistributed electronically.

    A form allowing access to any MPEC is at the bottom of this page.


    Read MPEC 2010-V19 Read MPEC 2010-V21


    M.P.E.C. 2010-V20                                Issued 2010 Nov. 2, 17:21 UT
    
         The Minor Planet Electronic Circulars contain information on unusual
             minor planets and routine data on comets.  They are published
       on behalf of Commission 20 of the International Astronomical Union by the
              Minor Planet Center, Smithsonian Astrophysical Observatory,
                              Cambridge, MA 02138, U.S.A.
    
                 Prepared using the Tamkin Foundation Computer Network
    
                                  MPC@CFA.HARVARD.EDU
           URL https://www.minorplanetcenter.org/iau/mpc.html  ISSN 1523-6714
    
                                        2010 VJ
    
    Observations:
         K10V00J* C2010 11 01.25896 02 38 06.82 +07 31 29.8          20.3 V EV020G96
         K10V00J  C2010 11 01.26716 02 38 06.75 +07 31 49.8          20.5 V EV020G96
         K10V00J  C2010 11 01.27536 02 38 06.68 +07 32 10.0          20.7 V EV020G96
         K10V00J  C2010 11 01.28357 02 38 06.61 +07 32 29.7          20.4 V EV020G96
         K10V00J  C2010 11 01.37109 02 38 06.00 +07 36 01.6          20.3 V EV020G96
         K10V00J  C2010 11 01.37317 02 38 05.96 +07 36 06.7          20.5 V EV020G96
         K10V00J  C2010 11 01.37528 02 38 05.96 +07 36 11.8          20.2 V EV020G96
         K10V00J  C2010 11 01.37737 02 38 05.92 +07 36 16.8          19.9 V EV020G96
         K10V00J  C2010 11 01.40855 02 38 05.74 +07 37 32.2                 EV020291
         K10V00J  C2010 11 01.41223 02 38 05.71 +07 37 41.3                 EV020291
         K10V00J  C2010 11 01.41596 02 38 05.71 +07 37 50.0                 EV020291
         K10V00J  C2010 11 02.27066 02 38 10.57 +08 12 07.9          20.1 V EV020G96
         K10V00J  C2010 11 02.27790 02 38 10.53 +08 12 25.2          20.4 V EV020G96
         K10V00J  C2010 11 02.28514 02 38 10.42 +08 12 43.1                 EV020291
         K10V00J  C2010 11 02.28514 02 38 10.42 +08 12 42.5          20.4 V EV020G96
         K10V00J  C2010 11 02.28885 02 38 10.41 +08 12 51.9                 EV020291
         K10V00J  C2010 11 02.29245 02 38 10.39 +08 12 59.8          20.6 V EV020G96
         K10V00J  C2010 11 02.39613 02 38 09.56 +08 17 07.6          21.4 V EV020G96
         K10V00J  C2010 11 02.39938 02 38 09.56 +08 17 14.7          20.9 V EV020G96
         K10V00J  C2010 11 02.40216 02 38 09.47 +08 17 20.7          20.0 R EV020H01
         K10V00J  C2010 11 02.40262 02 38 09.56 +08 17 22.7          20.7 V EV020G96
         K10V00J  C2010 11 02.40584 02 38 09.52 +08 17 29.6          20.6 V EV020G96
         K10V00J  C2010 11 02.40791 02 38 09.44 +08 17 34.1          20.1 R EV020H01
         K10V00J  C2010 11 02.41842 02 38 09.38 +08 17 59.3          20.2 R EV020H01
         K10V00J  C2010 11 02.42300 02 38 09.37 +08 18 10.2          20.6 R EV020H01
    
    Observer details:
    291 LPL/Spacewatch II.  Observer T. H. Bressi.  1.8-m f/2.7 reflector + CCD.
    G96 Mt. Lemmon Survey.  Observer A. Boattini.  Measurers J. D. Ahern,
        E. C. Beshore, A. Boattini, G. J. Garradd, A. R. Gibbs, A. D. Grauer,
        R. E. Hill, R. A. Kowalski, S. M. Larson, R. H. McNaught.  1.5-m reflector
        + CCD.
    H01 Magdalena Ridge Observatory, Socorro.  Observer W. H. Ryan.  2.4-m f/8.9
        reflector + CCD.
    
    Orbital elements:
    2010 VJ                                                  Earth MOID = 0.2364 AU
    Epoch 2010 July 23.0 TT = JDT 2455400.5                 MPC
    M 341.71330              (2000.0)            P               Q
    n   0.24826904     Peri.  324.61506     +0.96457155     -0.23957060
    a   2.5071925      Node    49.63395     +0.26286519     +0.83710751
    e   0.5143418      Incl.    8.33801     +0.02244164     +0.49178953
    P   3.97           H   22.4           G   0.15           U   8
    Residuals in seconds of arc
    101101 G96  0.2+  0.1-    101101 291  0.3-  0.2+    101102 G96  0.1+  0.2-
    101101 G96  0.1+  0.0     101101 291  0.0   0.1-    101102 H01  0.1+  0.1+
    101101 G96  0.0   0.2+    101102 G96  0.5+  0.1-    101102 G96  0.4+  0.1+
    101101 G96  0.1-  0.0     101102 G96  0.7+  0.2-    101102 G96  0.1+  0.7-
    101101 G96  0.6+  0.1-    101102 291  0.4-  0.2+    101102 H01  0.1+  0.1-
    101101 G96  0.2+  0.0     101102 G96  0.0   0.2-    101102 H01  0.0   0.2+
    101101 G96  0.4+  0.0     101102 291  0.1-  0.1+    101102 H01  0.1+  0.2+
    101101 G96  0.0   0.0     101102 G96  0.4+  0.4-
    101101 291  0.1-  0.1-    101102 G96  0.2-  0.4+
    
    Ephemeris:
    2010 VJ                  a,e,i = 2.51, 0.51, 8                   q = 1.2176
    Date    TT    R. A. (2000) Decl.     Delta      r     Elong.  Phase     V
    2010 10 31    02 38.01   +06 40.3    0.262    1.252   171.5     6.8    20.5
    2010 11 01    02 38.09   +07 21.2    0.264    1.255   172.2     6.1    20.5
    2010 11 02    02 38.15   +08 01.5    0.267    1.258   172.9     5.6    20.5
    2010 11 03    02 38.21   +08 41.2    0.270    1.261   173.6     5.1    20.5
    2010 11 04    02 38.26   +09 20.3    0.273    1.263   174.1     4.6    20.5
    2010 11 05    02 38.31   +09 58.8    0.276    1.266   174.4     4.3    20.5
    2010 11 06    02 38.36   +10 36.5    0.279    1.269   174.6     4.2    20.5
    2010 11 07    02 38.41   +11 13.6    0.282    1.273   174.6     4.2    20.6
    2010 11 08    02 38.47   +11 49.9    0.286    1.276   174.4     4.3    20.6
    2010 11 09    02 38.53   +12 25.4    0.290    1.279   174.1     4.6    20.6
    2010 11 10    02 38.60   +13 00.2    0.294    1.283   173.6     5.0    20.7
    2010 11 11    02 38.68   +13 34.2    0.298    1.286   173.0     5.4    20.8
    2010 11 12    02 38.77   +14 07.4    0.302    1.290   172.3     5.9    20.8
    2010 11 13    02 38.88   +14 39.9    0.306    1.293   171.5     6.5    20.9
    2010 11 14    02 39.00   +15 11.5    0.310    1.297   170.7     7.1    20.9
    2010 11 15    02 39.14   +15 42.3    0.315    1.301   169.9     7.6    21.0
    2010 11 16    02 39.30   +16 12.3    0.320    1.304   169.1     8.2    21.1
    2010 11 17    02 39.48   +16 41.5    0.325    1.308   168.2     8.9    21.1
    2010 11 18    02 39.68   +17 09.9    0.330    1.312   167.4     9.5    21.2
    2010 11 19    02 39.90   +17 37.5    0.335    1.316   166.5    10.1    21.3
    2010 11 20    02 40.15   +18 04.3    0.340    1.320   165.6    10.7    21.3
    
    Timothy B. Spahr             (C) Copyright 2010 MPC           M.P.E.C. 2010-V20
    

    Read MPEC 2010-V19 Read MPEC 2010-V21


    MPEC number:

    Enter an MPEC number in one of the following forms:

    • 1997-B01 (the full form)
    • J97B01 (the packed version of the full form)
    • B01 (the abbreviated form)